Theta_e
348 351 352 352 352 352 351 350 351 350 350 349 349 350 352 352 351 350 350 350 349 348 348 348 348 346 346 346 347 346 346 345 345 341 338 337 338 341 343 344 345 345 345 346 345 344 344 345 345 345 345 343 341 341 341 340 340 341 341 341 341 342 342 342 342 342 343 343 343 343 344 343 342 341 340 338 338 339 339 340 340 340 340 341 341
349 349 351 351 351 351 351 350 351 350 350 349 349 350 352 353 352 350 349 351 350 348 347 347 347 346 344 344 345 346 344 345 345 340 338 338 338 339 341 343 344 344 345 345 345 344 344 345 346 345 345 345 344 343 343 341 340 340 340 340 340 341 341 342 342 343 342 342 342 342 343 343 343 343 342 341 341 341 342 343 342 341 341 341 342
350 350 351 351 350 351 350 350 351 351 350 349 350 351 352 353 352 350 349 350 350 347 347 345 345 346 344 343 344 345 344 344 343 338 337 338 338 339 339 342 344 344 345 345 346 346 345 346 346 346 346 345 344 344 344 343 342 340 340 340 340 341 341 341 341 342 342 342 342 341 342 342 343 343 342 342 342 342 343 343 342 342 341 341 342
351 350 350 350 351 351 351 351 351 350 350 350 350 351 352 352 351 350 349 350 349 348 347 345 345 346 345 343 343 345 345 344 340 335 335 337 338 339 339 341 344 344 344 345 346 346 347 347 346 347 347 346 345 344 344 344 344 343 342 341 343 343 342 341 341 341 342 343 342 341 342 342 342 343 343 342 342 343 343 342 342 342 342 341 341
351 351 351 352 352 352 351 351 351 351 351 350 350 351 351 352 351 351 351 350 351 349 348 346 345 346 345 343 343 344 344 343 338 335 335 335 336 339 340 341 343 344 344 344 345 346 347 347 347 347 346 346 345 345 345 345 345 344 343 343 344 344 343 343 343 342 342 343 343 343 342 342 343 343 343 342 342 342 343 342 342 342 341 341 341
351 352 352 353 353 353 352 352 352 352 352 351 350 351 351 351 352 352 351 350 351 350 347 347 345 344 345 343 341 343 345 343 338 336 336 335 335 338 339 340 342 343 343 343 344 345 346 347 347 347 346 346 346 345 346 346 345 345 344 344 343 344 344 344 344 343 343 343 343 343 343 343 343 343 343 343 342 343 342 342 342 341 341 341 341
352 353 354 354 354 353 353 353 353 352 353 352 352 351 351 351 351 352 352 350 351 350 347 346 345 344 345 344 342 342 345 344 339 338 338 336 335 337 338 338 340 341 342 343 344 345 346 346 347 347 347 346 346 346 346 346 346 346 345 344 344 343 344 345 345 344 343 342 343 344 344 344 344 343 344 344 343 343 343 343 342 342 341 341 341
353 354 355 353 354 354 353 353 353 353 354 354 354 353 351 352 352 352 352 351 351 351 349 347 345 344 345 344 340 340 344 344 341 340 339 338 338 339 339 339 338 339 340 342 343 345 345 346 347 347 346 346 346 346 345 346 346 346 346 345 344 344 344 345 345 345 344 344 344 344 345 346 345 344 345 344 343 343 343 343 342 342 342 341 341
354 354 355 354 355 355 354 353 353 354 355 355 355 354 353 352 352 352 353 352 351 351 350 348 346 345 346 342 339 339 342 344 342 341 340 341 342 341 341 341 339 338 338 339 340 342 344 345 346 346 346 346 346 346 345 345 345 345 346 346 345 344 345 345 345 345 345 345 345 345 345 345 345 345 344 344 343 343 343 342 342 342 342 342 342
354 354 354 355 355 355 354 353 354 355 355 355 356 354 353 354 353 353 353 353 351 351 349 348 346 346 345 342 339 339 341 343 342 341 341 342 343 341 342 343 341 339 338 338 338 339 341 343 344 345 346 347 346 346 345 345 346 345 346 346 345 345 345 345 345 345 344 345 345 344 344 344 344 344 344 343 343 343 342 342 342 342 343 342 343
352 354 354 355 355 355 354 354 355 355 355 356 356 355 353 353 354 355 354 353 352 351 349 347 346 346 344 342 341 341 342 343 343 342 342 342 342 341 341 342 342 342 341 340 338 338 339 340 343 344 345 346 346 346 346 346 346 346 346 346 346 346 346 346 346 345 344 344 344 344 344 344 343 343 343 343 343 342 342 342 342 343 343 343 343
350 351 352 354 354 354 354 355 355 356 356 355 355 354 354 353 354 356 355 354 353 352 350 348 346 346 344 341 341 343 342 343 343 343 343 342 342 341 340 340 341 343 343 341 341 341 341 340 340 341 343 344 345 345 346 346 346 346 345 346 346 346 346 346 346 346 345 345 344 344 344 343 343 343 342 342 343 342 343 342 342 342 343 343 343
349 347 350 354 355 355 355 355 356 355 355 354 353 355 355 354 355 355 354 355 354 354 351 347 346 346 344 342 340 342 343 343 343 343 344 343 341 341 340 339 341 342 341 340 341 342 343 342 340 339 340 341 342 343 344 343 344 345 345 346 346 345 346 346 346 345 344 344 344 344 344 343 343 343 342 342 340 341 340 340 340 341 342 343 342
347 342 346 354 355 354 355 354 354 355 354 353 354 355 354 355 355 355 354 355 354 353 349 347 346 345 344 341 339 339 341 342 344 344 344 343 341 341 340 340 341 340 340 339 339 340 340 341 342 340 339 339 339 340 340 342 342 343 343 344 346 345 345 345 344 344 343 343 343 343 341 338 337 335 334 333 331 331 332 332 332 333 335 335 332
349 342 343 352 355 354 354 354 353 354 354 354 356 355 354 355 356 355 353 354 354 351 349 348 346 344 343 344 344 343 340 339 341 343 343 344 343 342 341 340 342 341 340 339 338 339 338 338 340 340 339 339 339 339 338 338 338 339 339 341 344 344 344 344 343 344 344 340 336 334 328 323 321 320 319 319 319 319 319 319 320 320 320 320 318
350 344 340 346 353 353 353 353 354 354 354 354 355 356 356 356 356 355 354 354 354 352 351 349 347 345 345 347 344 343 346 341 337 339 340 342 343 343 342 340 342 342 340 338 338 339 338 337 338 339 339 339 339 339 339 338 334 333 335 335 339 341 342 342 342 341 337 327 320 319 316 314 315 315 315 316 316 316 316 316 316 316 316 316 315
351 348 342 339 346 352 352 353 354 354 355 354 355 356 357 357 355 355 355 355 354 353 352 349 348 345 344 348 342 343 354 346 335 336 338 340 342 343 342 340 342 343 340 339 338 339 339 338 339 340 341 340 340 340 338 338 333 328 328 327 328 333 336 339 337 330 321 316 315 316 316 317 316 316 316 316 317 317 318 317 317 317 317 317 317
349 350 347 340 339 345 350 353 354 354 354 354 355 357 357 357 356 356 355 355 354 353 353 349 348 347 342 345 343 345 352 343 338 341 339 337 340 341 341 339 341 342 340 340 339 338 338 338 337 339 342 341 340 339 336 334 330 324 322 319 320 326 330 333 327 319 315 316 319 320 320 320 320 319 319 319 320 320 321 322 321 321 321 321 321
350 351 351 345 340 342 346 352 354 353 353 353 355 357 357 357 358 358 356 355 354 353 353 349 348 348 344 343 342 343 344 338 339 346 344 339 338 338 340 340 341 341 340 341 339 338 338 337 336 337 340 340 340 339 334 329 323 320 318 315 317 321 324 324 319 316 318 321 322 323 323 323 322 322 322 323 324 324 325 325 326 326 326 326 326
351 351 351 349 345 343 345 350 351 351 352 353 354 355 357 358 359 359 358 356 354 353 352 350 349 347 345 343 341 342 343 337 337 342 347 346 340 337 338 339 341 341 340 340 339 339 338 337 336 336 338 339 339 338 335 330 324 319 319 317 317 318 319 319 318 319 322 324 324 324 324 324 325 325 325 326 326 327 327 328 328 329 329 329 329
352 351 352 351 348 347 347 349 350 350 352 354 355 355 356 359 360 359 358 356 354 353 351 350 348 346 344 343 341 341 342 340 338 338 342 346 343 339 337 337 339 340 340 339 338 338 337 337 337 337 338 337 338 337 337 336 329 322 321 321 321 320 320 320 320 322 324 324 325 324 325 325 326 326 327 327 328 328 328 329 329 329 329 330 329
353 352 353 352 351 350 350 351 351 350 353 356 358 357 356 358 360 359 357 356 355 354 352 350 347 345 343 342 341 341 341 341 341 339 338 339 342 339 336 337 337 338 338 338 338 338 337 338 339 338 337 337 337 336 337 338 335 328 326 324 323 323 323 323 323 324 324 325 325 325 326 326 326 327 327 328 329 329 329 329 330 330 330 330 330
353 353 354 353 353 353 352 352 353 351 354 359 359 358 357 359 360 359 358 357 355 355 353 351 350 346 344 341 338 341 342 340 341 340 339 339 341 339 336 337 337 336 337 337 337 339 339 339 338 338 338 337 337 336 336 338 337 335 330 327 326 326 325 326 326 326 326 326 326 326 326 327 327 327 328 328 328 329 329 329 330 330 331 331 331
354 354 354 354 354 355 354 353 354 353 355 358 360 359 358 358 360 359 359 358 357 355 353 352 350 347 345 341 338 340 341 341 340 340 340 340 340 339 337 337 338 338 337 337 337 338 338 339 339 338 337 338 337 336 336 336 337 337 334 331 331 330 329 328 327 327 328 328 327 327 327 328 328 328 328 329 329 329 329 330 330 331 331 330 330
355 354 354 354 354 355 355 354 354 354 355 358 359 359 358 359 360 359 359 358 357 355 353 352 349 346 346 344 340 340 341 340 340 340 341 341 339 339 339 339 339 338 338 338 338 338 338 338 339 338 337 337 337 337 337 336 336 336 335 334 334 333 332 331 330 329 329 329 329 329 329 328 328 328 328 329 329 329 330 330 330 330 329 329 329
355 354 353 354 354 355 355 354 354 354 355 357 359 359 359 359 360 360 359 359 358 356 352 351 349 346 347 344 340 340 341 339 339 340 341 342 341 340 342 342 340 338 340 340 338 338 339 338 339 338 337 337 337 338 337 336 336 335 335 336 335 334 334 334 332 331 330 330 330 330 329 330 329 329 329 329 329 329 330 330 329 329 329 328 327
353 353 354 354 354 354 355 354 355 354 354 356 359 360 359 360 360 360 360 359 358 357 352 349 348 347 346 344 341 341 340 338 340 340 341 342 342 340 342 346 346 341 339 341 338 337 338 338 338 337 337 338 337 337 337 336 336 336 336 337 336 336 336 336 334 333 332 332 331 331 331 331 330 330 329 329 329 329 329 329 329 330 329 327 327
352 353 354 355 354 354 354 354 354 354 354 355 358 361 360 360 360 360 360 359 359 357 354 351 349 348 346 344 343 342 339 339 340 341 341 342 342 342 340 343 348 348 346 345 341 338 338 337 337 338 337 337 338 337 337 336 336 337 337 336 336 336 337 337 336 335 333 333 333 333 333 333 333 332 331 330 329 329 329 329 329 329 328 328 328
352 353 354 355 355 354 353 354 355 355 354 354 357 360 361 361 361 360 360 360 359 358 357 355 351 349 347 345 345 343 340 340 342 341 340 341 341 342 342 340 344 350 352 353 346 339 339 339 338 339 339 337 337 338 337 337 336 337 337 337 337 336 336 337 337 336 335 334 334 334 335 335 335 335 334 333 332 331 330 329 329 329 328 328 329
353 354 354 354 355 354 354 354 354 355 355 355 356 359 361 362 360 360 359 359 359 358 357 356 353 349 348 346 346 345 342 340 342 342 341 342 341 340 342 341 340 343 346 350 350 341 338 340 339 338 339 338 338 338 338 337 336 336 336 337 337 336 336 337 337 336 335 335 335 335 335 335 336 336 335 334 333 332 331 330 329 329 328 328 329
354 355 355 355 355 355 354 354 355 355 356 356 357 358 361 361 360 360 359 358 358 358 357 357 354 350 350 347 346 346 343 339 340 342 342 343 342 340 341 340 340 341 340 343 348 343 339 340 340 339 339 338 338 338 338 338 337 336 336 337 337 337 337 338 338 336 335 335 336 336 337 337 337 336 334 332 331 331 331 330 329 328 328 328 329
355 355 356 355 355 355 355 355 355 356 357 357 358 358 360 361 360 360 359 358 358 357 357 357 355 353 352 350 346 346 345 342 340 342 343 345 344 343 342 340 339 341 339 339 342 342 339 340 340 340 339 339 338 337 337 337 337 337 337 337 337 338 337 338 337 336 336 337 337 337 338 338 338 337 333 331 330 330 330 329 328 327 328 329 329
354 356 357 356 355 356 356 356 356 356 357 358 358 358 359 360 359 360 360 359 358 357 357 357 357 355 353 352 348 344 343 343 343 343 343 344 345 345 344 341 339 340 340 339 341 341 341 342 342 342 341 340 339 336 336 337 337 337 337 336 337 338 338 337 337 337 337 337 338 338 338 338 338 336 333 331 330 329 328 328 328 328 329 329 330
356 356 356 356 356 357 357 358 357 357 357 357 358 359 359 359 359 360 360 359 358 358 357 358 357 356 355 353 350 346 343 341 341 343 344 343 345 346 344 341 340 341 340 340 341 341 341 341 342 343 342 341 340 339 337 337 337 337 336 336 338 337 337 338 339 339 338 338 337 338 338 338 338 335 332 332 332 331 331 330 329 329 330 331 331
356 356 356 356 356 358 358 358 358 358 358 357 358 359 358 359 359 359 359 359 358 358 358 357 358 357 355 354 352 349 346 343 340 341 343 344 344 345 344 342 341 341 341 341 341 342 342 341 341 342 343 342 341 339 339 337 337 337 336 337 337 337 338 339 339 339 339 337 336 336 337 338 337 335 334 335 334 333 333 333 332 332 333 332 331
358 356 356 356 357 357 358 358 358 358 358 358 358 358 358 358 358 358 359 359 358 358 357 357 357 357 356 355 353 351 349 348 344 341 341 343 343 344 344 345 343 341 341 343 342 343 342 341 341 341 342 343 342 339 339 338 337 336 337 337 338 338 338 339 340 340 339 339 337 336 336 337 337 336 336 335 334 333 333 333 333 333 333 332 331
358 357 358 358 358 358 358 357 358 358 358 358 359 359 359 358 358 357 357 358 358 358 357 357 356 356 356 355 353 353 350 350 348 345 342 341 342 342 343 344 345 344 343 343 343 343 343 342 342 340 341 342 342 341 339 338 338 337 337 338 338 339 339 340 340 340 340 341 339 337 336 337 338 338 337 336 335 335 334 334 334 334 333 332 331
356 358 359 359 359 359 359 359 359 359 358 358 359 359 359 359 359 358 358 358 358 358 358 357 356 355 355 353 353 353 352 351 350 348 345 342 342 342 342 342 344 345 345 344 344 343 343 343 343 342 341 340 342 342 341 339 338 338 338 339 340 340 340 340 340 340 341 340 340 339 338 338 339 339 338 338 337 336 335 335 334 334 333 333 332
355 356 358 360 359 359 360 360 360 360 358 358 359 359 359 359 359 359 359 359 358 358 358 358 357 356 355 354 353 353 352 352 351 350 348 346 344 343 342 341 342 344 345 345 344 344 344 343 343 342 342 341 341 342 341 341 341 340 341 340 341 341 340 341 340 340 341 341 340 340 339 339 339 339 338 338 338 337 335 334 334 334 334 334 333
354 355 356 358 359 359 359 359 360 360 359 359 359 359 359 359 359 360 360 359 359 359 359 358 358 358 357 355 355 353 353 352 351 350 350 348 347 345 344 344 344 344 344 345 345 344 344 344 343 343 343 342 342 341 341 342 342 342 341 341 341 341 340 340 340 340 340 340 340 340 339 340 340 339 338 338 337 336 335 334 334 334 334 334 334
355 355 355 357 358 359 359 359 359 359 359 359 358 358 359 359 359 359 360 360 360 359 359 358 358 358 357 357 356 354 353 351 351 351 350 350 349 347 346 345 345 345 345 344 345 344 344 344 343 343 342 342 343 342 343 343 342 341 342 341 341 341 341 341 340 340 340 339 340 340 340 340 339 339 339 337 336 335 334 334 334 334 335 335 334
356 355 355 356 357 358 359 359 359 359 359 359 358 358 358 358 359 359 359 359 360 359 359 358 358 358 357 357 356 355 354 353 352 352 351 350 350 348 347 345 345 346 345 345 345 344 344 344 344 343 342 341 342 342 343 343 342 342 342 341 341 341 340 340 341 340 340 340 340 340 340 339 339 339 339 338 337 336 335 335 334 335 335 334 332
356 356 355 356 356 358 359 359 359 359 358 359 359 359 358 358 359 359 359 359 359 359 359 358 357 357 357 356 356 356 355 354 354 353 352 351 350 350 348 346 345 345 345 345 345 345 345 344 344 344 343 342 342 342 342 342 343 342 342 342 342 341 340 340 340 341 341 340 340 340 340 339 339 339 339 339 339 338 337 335 335 336 335 333 330
357 357 356 356 357 357 358 359 359 359 358 358 359 359 359 359 359 359 358 359 359 359 359 359 358 357 357 357 357 356 356 355 355 354 353 353 352 351 350 349 347 346 345 345 345 345 345 344 344 344 343 343 343 342 342 342 342 342 343 342 342 341 341 341 340 341 340 341 341 340 340 340 340 339 340 339 338 338 337 336 335 336 334 332 330
356 357 357 357 357 357 358 358 359 359 358 359 358 359 359 359 359 359 359 358 359 359 359 359 358 358 357 357 357 356 356 356 356 355 354 354 353 353 351 350 349 348 347 346 346 345 345 344 344 343 344 343 343 343 342 342 342 342 342 342 342 341 341 341 340 341 340 340 341 341 341 340 340 340 340 339 338 337 336 336 336 335 332 330 329
356 357 357 357 358 358 357 358 358 359 359 359 359 358 358 358 359 359 360 359 359 359 359 359 358 358 358 357 357 356 357 357 356 356 356 355 354 353 353 352 350 350 349 348 347 347 346 345 344 344 343 343 342 342 341 342 342 341 341 342 342 341 341 341 341 341 340 341 340 341 341 341 340 340 340 338 337 336 336 336 335 332 330 329 329
355 355 356 356 357 357 357 356 357 358 359 359 359 360 359 359 359 359 360 360 360 359 359 359 359 359 359 358 358 358 357 357 357 356 356 356 355 354 353 352 352 351 350 350 349 349 348 347 346 345 344 343 342 341 341 342 342 342 341 341 341 341 341 341 341 341 341 341 340 340 340 340 340 340 339 338 337 336 336 335 333 329 328 329 329
355 355 355 357 357 357 357 357 356 357 357 358 359 359 359 360 359 360 360 360 360 360 359 359 359 359 359 359 359 359 358 358 358 357 357 357 356 355 354 353 353 352 352 351 350 350 350 349 348 347 346 345 344 342 342 342 342 342 342 342 341 341 341 341 341 341 341 341 340 340 340 339 339 339 338 338 337 337 336 334 331 328 328 327 326
356 355 355 356 356 357 358 358 357 358 357 357 359 359 360 360 360 360 361 360 360 360 360 359 359 359 360 360 360 360 359 359 358 358 358 358 357 356 354 354 353 352 352 351 351 351 351 351 349 349 348 347 345 345 344 343 342 342 342 342 342 341 341 340 340 340 340 340 340 340 339 339 339 338 338 337 337 336 335 332 330 328 326 324 324
355 355 355 355 356 357 358 359 359 358 358 358 359 360 360 361 361 361 361 360 360 359 360 360 360 360 360 359 360 360 360 359 360 360 359 358 358 357 356 355 354 353 353 352 351 351 351 351 350 350 349 348 347 346 345 345 344 343 342 342 342 341 341 340 340 340 340 340 340 341 339 338 338 338 337 336 335 335 334 331 328 327 325 323 323
356 355 355 355 355 356 357 358 359 359 360 359 359 360 360 361 362 362 362 360 359 359 359 359 359 360 360 359 359 359 360 359 359 359 359 359 359 358 357 356 355 354 354 353 353 352 351 351 350 350 349 349 348 347 347 345 345 344 344 342 342 342 341 340 341 340 340 340 340 340 340 338 337 337 336 333 331 331 332 330 328 327 324 322 323
Wind_Speed
12 11 10 9 8 8 8 8 8 8 8 9 9 9 9 8 7 6 5 5 4 5 4 2 2 1 7 14 15 15 14 12 12 11 11 12 13 13 13 12 12 11 10 9 8 8 8 8 8 8 7 7 7 7 7 8 8 8 8 8 7 7 7 6 6 5 5 4 4 4 3 3 2 2 2 2 2 2 2 3 3 3 4 5 6
13 11 11 10 9 9 8 8 8 8 8 9 9 9 8 7 6 5 5 4 3 5 5 4 3 2 2 13 17 16 15 13 12 11 11 12 13 13 13 12 12 11 11 10 9 8 8 8 8 8 8 8 8 7 7 7 7 7 7 7 7 6 6 6 6 5 5 4 4 4 3 4 3 3 3 3 3 3 3 4 4 5 5 6 7
13 12 12 11 10 10 10 8 8 9 8 8 9 8 8 7 6 5 5 4 4 6 6 6 4 4 3 9 17 17 16 15 12 12 11 11 12 13 13 12 12 11 11 10 9 9 8 8 8 7 8 8 8 8 7 8 7 7 7 7 6 6 6 6 6 5 5 4 4 4 4 5 4 5 5 5 5 5 5 6 6 7 7 7 7
14 13 13 13 11 11 10 9 9 9 8 8 9 8 8 7 5 4 4 4 5 6 7 6 3 4 5 3 14 18 18 16 13 12 11 11 12 12 12 12 12 11 11 10 10 9 9 8 8 7 7 7 8 8 8 8 7 8 7 7 7 6 6 6 6 6 5 5 5 5 5 5 5 5 5 6 6 6 6 6 7 7 8 8 8
13 14 14 14 12 12 11 10 9 9 8 9 9 8 8 6 4 4 4 4 4 5 8 6 3 4 6 3 10 19 20 17 14 12 11 10 11 11 12 12 12 11 11 10 10 10 9 9 9 8 8 8 8 8 8 8 7 7 8 8 7 7 7 7 6 7 6 6 6 6 5 5 6 6 6 6 7 7 7 7 8 8 8 8 9
13 15 15 13 12 11 10 10 10 9 8 8 8 6 6 5 5 4 4 4 3 4 7 5 3 3 6 6 5 16 21 18 15 13 10 10 10 11 11 11 11 11 11 10 10 10 10 10 9 9 9 8 8 8 8 8 7 7 7 8 8 8 8 7 7 7 7 7 7 7 7 7 7 7 7 7 7 7 8 8 9 10 10 9 9
14 15 14 13 12 12 11 10 10 9 8 7 6 5 5 5 5 5 4 4 3 4 5 4 3 2 5 7 2 13 22 20 16 13 10 10 11 10 10 10 10 10 10 10 10 10 10 10 10 9 9 9 9 9 9 9 8 8 7 7 8 8 8 8 7 8 8 8 8 8 7 7 7 7 8 7 7 8 8 10 10 11 11 10 10
15 14 14 13 13 12 11 10 10 10 9 7 6 5 5 5 5 5 4 3 2 2 4 3 3 1 5 6 4 15 22 20 17 14 12 12 11 10 9 9 9 9 8 9 9 10 10 10 10 10 9 9 9 9 9 9 9 8 8 7 7 7 8 8 8 8 8 8 8 8 8 8 7 7 7 8 8 9 9 10 11 11 10 10 10
16 15 14 14 13 13 12 11 10 10 9 7 7 5 5 6 6 5 4 3 3 3 4 4 2 2 6 6 6 16 21 20 18 15 14 13 12 10 9 9 9 9 8 7 8 9 10 10 10 10 10 10 10 10 9 9 9 8 8 7 7 7 8 8 8 8 8 8 7 8 8 8 8 7 7 8 8 9 10 11 11 10 10 9 9
19 17 15 14 13 13 13 11 11 11 10 8 8 6 5 6 6 5 4 3 3 3 4 4 3 3 5 6 9 15 20 20 19 16 15 14 13 11 9 8 8 8 7 7 6 7 8 9 10 10 9 9 10 10 9 9 9 8 8 7 7 7 8 7 8 8 8 8 8 8 8 8 9 9 8 9 10 10 10 10 10 9 9 9 9
21 19 16 15 13 13 14 13 12 11 10 9 9 7 6 6 7 6 5 3 4 5 4 4 3 3 5 9 13 16 19 21 19 18 16 15 13 12 10 9 8 8 7 7 6 6 6 7 8 9 9 10 10 9 8 8 8 8 8 7 7 7 7 7 7 7 7 7 7 8 8 8 8 9 9 9 10 9 9 9 8 8 8 8 9
22 21 19 17 14 14 14 13 13 12 11 11 10 8 6 7 8 8 7 5 6 6 4 3 3 2 2 7 12 16 19 20 20 18 17 15 14 13 12 10 9 8 8 7 6 6 5 5 6 8 8 9 8 7 7 8 7 8 8 8 7 7 7 6 6 6 6 6 6 7 7 7 7 7 7 8 8 8 8 8 7 7 7 7 8
21 21 21 19 16 14 13 13 12 12 11 10 9 8 7 7 8 8 8 7 8 7 6 5 4 3 2 3 8 14 18 18 19 19 18 16 14 14 13 12 11 9 8 7 7 6 6 5 5 6 7 7 7 7 7 7 7 7 8 7 7 6 6 6 5 6 6 6 6 6 7 7 5 4 6 6 6 6 5 5 5 5 5 6 6
18 20 22 21 18 16 14 13 12 12 11 10 8 8 8 9 9 8 8 8 8 8 9 8 5 4 4 2 3 8 11 13 17 19 19 17 15 14 15 14 13 11 10 9 7 7 6 6 6 5 5 6 6 7 7 6 7 7 7 7 6 6 6 5 5 5 4 4 5 5 5 4 3 2 3 3 2 1 1 2 2 2 2 3 4
17 18 22 23 20 18 16 14 12 12 12 12 10 9 9 10 11 9 9 9 9 10 11 8 6 6 5 2 1 2 3 6 13 17 19 19 17 16 16 15 14 12 11 10 8 8 7 6 7 6 5 5 5 5 6 6 5 5 5 6 6 6 6 5 4 4 3 3 3 2 1 1 0 2 2 3 3 3 3 3 3 4 3 3 4
18 17 20 23 22 20 18 15 14 13 13 13 12 11 11 11 11 10 9 10 10 10 11 9 7 7 5 2 1 2 1 4 8 11 14 19 20 18 17 16 15 14 13 10 9 9 8 7 7 6 5 5 5 5 5 5 3 3 4 5 6 6 6 5 4 4 3 2 1 1 1 2 2 4 5 5 4 4 4 4 4 4 4 4 5
20 18 19 22 23 21 19 17 16 14 14 13 12 12 12 12 12 10 10 11 11 11 11 11 9 9 7 3 2 2 2 3 4 5 9 15 20 21 18 17 17 16 14 11 10 9 8 8 7 6 6 5 5 4 5 5 3 3 3 4 5 5 5 6 5 5 4 2 2 2 2 2 3 4 4 4 4 4 4 3 3 3 4 4 5
21 19 18 20 23 23 21 19 17 16 15 13 12 12 13 13 12 11 11 11 12 11 11 12 11 10 11 9 4 1 3 3 3 2 3 8 16 21 21 19 19 18 16 14 12 10 9 9 8 7 6 6 5 3 4 4 4 3 4 4 5 5 5 6 6 5 5 4 3 3 3 3 4 4 4 3 3 3 3 4 4 4 4 5 5
23 21 19 19 21 22 23 22 19 18 16 14 14 13 13 13 13 13 12 12 13 13 13 13 13 12 11 12 8 2 4 5 5 3 1 3 10 18 21 20 21 20 19 17 15 13 12 11 9 8 7 7 5 4 2 3 3 4 4 4 5 5 6 6 6 6 6 5 4 4 4 4 4 4 4 4 4 4 4 4 5 5 6 6 6
25 22 20 20 21 22 23 23 22 20 18 16 15 14 13 13 14 14 13 14 14 13 14 13 14 14 12 11 8 3 5 7 8 7 4 2 4 9 15 19 22 22 20 18 17 15 13 12 10 8 8 8 7 4 3 3 4 4 4 4 5 6 6 6 6 6 6 5 4 3 3 4 4 4 4 4 4 4 4 4 5 5 5 6 6
26 23 21 20 21 22 22 23 22 21 19 17 16 14 14 14 15 15 16 16 14 13 14 14 14 15 14 12 9 5 4 5 7 8 6 5 3 4 9 13 16 22 23 20 17 16 14 13 11 9 8 8 8 6 5 5 5 5 5 5 5 5 6 6 6 6 6 5 4 3 3 3 3 3 2 2 2 2 3 3 4 5 5 6 7
28 24 22 21 21 22 22 23 22 21 19 18 17 16 15 15 15 16 16 17 15 14 14 15 14 15 13 13 12 9 6 5 5 6 7 7 5 5 11 13 11 18 23 22 20 18 16 14 13 11 10 9 8 8 8 7 6 6 6 6 6 6 6 6 6 6 6 5 4 4 3 3 2 1 1 0 1 2 3 4 5 5 6 7 8
29 26 24 23 22 22 22 23 22 21 20 19 18 17 16 16 16 16 17 16 16 16 16 16 16 16 14 14 15 13 9 7 6 8 7 6 6 6 12 15 12 15 21 22 22 20 18 17 15 13 12 11 10 9 9 8 7 6 6 7 7 7 7 7 7 7 6 6 6 5 4 4 3 3 2 2 3 3 4 5 6 7 7 8 9
30 28 26 24 23 23 22 23 22 22 22 20 19 17 16 17 17 17 18 18 17 17 17 18 17 17 17 15 16 16 13 10 8 8 7 7 9 9 12 13 10 11 15 19 21 22 21 20 17 15 13 13 13 11 10 10 9 8 8 8 8 7 8 8 8 8 8 8 7 7 6 6 5 5 5 4 4 5 5 6 7 8 9 9 10
31 31 29 27 25 25 24 24 24 23 23 22 21 18 17 18 18 18 19 19 18 18 18 19 17 17 17 16 16 17 16 13 10 9 8 9 10 10 11 12 10 11 12 15 19 22 24 23 19 17 15 15 15 14 13 12 11 11 10 9 9 8 9 9 9 10 10 10 9 8 8 7 7 7 7 6 6 6 6 7 8 9 9 10 10
33 32 31 29 27 26 26 26 26 24 23 23 22 20 18 18 19 20 20 20 18 18 19 19 18 16 16 16 16 17 17 15 13 11 9 9 9 9 8 7 8 10 10 12 16 18 21 25 23 20 19 18 18 17 16 15 13 13 12 11 11 11 10 9 10 10 11 11 11 10 9 9 9 9 9 9 8 8 8 8 9 9 9 9 9
34 33 31 30 28 27 27 27 26 25 24 24 24 22 19 19 20 21 21 20 19 18 19 19 19 17 17 17 17 18 18 17 16 14 12 10 10 10 8 5 3 5 5 8 13 16 20 22 23 24 23 22 22 20 18 18 16 15 14 13 13 13 12 11 11 11 11 11 11 11 10 10 10 10 11 11 11 10 10 10 10 10 10 9 9
34 32 31 30 29 28 28 28 28 27 25 25 25 24 22 21 21 22 22 22 21 20 19 19 20 19 18 19 18 17 18 19 18 16 15 13 11 11 12 10 6 2 3 4 8 14 20 21 22 25 26 25 24 22 21 20 19 17 17 16 15 15 15 14 13 12 12 12 12 11 11 10 11 11 12 12 12 12 12 12 12 12 11 10 9
33 33 31 31 30 29 29 29 29 28 27 26 25 25 24 24 23 23 24 23 23 22 21 20 20 20 19 20 20 17 17 20 19 17 16 16 15 14 15 16 13 7 3 4 6 12 18 21 22 22 25 26 26 24 24 23 22 20 19 19 17 16 16 15 15 14 13 13 13 13 12 12 12 12 12 13 13 13 13 14 14 13 12 11 10
33 32 32 31 31 30 30 29 30 30 29 27 26 26 26 27 26 25 25 25 25 25 23 22 22 21 20 21 22 20 18 21 21 18 17 18 18 19 18 19 19 15 10 6 6 13 18 21 23 23 23 25 26 26 27 27 25 23 22 22 20 17 16 16 16 16 15 14 14 14 14 13 13 12 12 13 13 13 14 14 15 14 12 11 10
33 32 32 32 32 31 31 30 30 30 30 29 28 27 28 29 28 27 26 26 27 27 25 24 23 22 22 22 24 24 21 22 23 21 19 20 21 22 21 20 22 22 19 12 5 12 19 21 23 24 23 23 24 25 28 29 28 26 24 24 22 19 17 17 17 17 16 15 14 14 14 14 14 13 13 13 13 14 14 14 14 14 13 12 11
34 33 32 32 32 32 32 32 31 31 31 31 30 30 30 30 30 29 29 28 28 29 28 26 25 25 25 24 26 28 26 25 26 24 22 21 21 22 23 23 23 23 24 19 10 12 19 19 20 22 22 22 23 24 26 29 30 29 27 26 23 21 19 19 19 18 18 17 15 15 15 15 15 15 14 14 13 13 14 14 14 13 13 12 12
35 34 33 33 33 33 33 33 33 32 32 33 32 32 33 33 32 31 31 30 30 31 30 28 27 27 27 27 26 28 29 29 29 27 25 23 22 21 22 24 25 25 24 23 17 16 19 20 18 19 20 21 23 24 24 27 30 30 28 27 25 23 22 21 20 19 19 19 17 17 17 17 17 16 15 14 13 13 13 13 13 13 12 12 12
36 35 35 34 34 34 34 35 35 34 34 34 34 34 35 35 34 33 33 32 32 32 32 31 31 30 30 30 28 27 28 31 32 31 30 27 24 22 22 24 27 27 26 26 23 18 20 23 22 20 20 21 22 24 25 27 29 29 29 28 26 25 24 22 21 21 20 20 20 19 19 19 18 17 16 15 14 14 13 13 13 13 12 12 12
36 37 37 37 36 35 35 36 36 36 36 36 36 37 37 36 36 35 34 34 34 34 34 34 34 33 32 32 32 29 28 30 32 33 33 31 28 26 25 26 27 27 27 27 26 22 22 24 24 22 22 22 22 23 24 27 28 29 30 29 27 26 25 24 23 22 20 20 21 21 21 20 18 17 16 16 16 15 14 14 13 13 12 12 12
36 37 38 37 37 37 37 37 38 38 38 38 38 38 38 38 37 37 36 36 36 37 37 37 36 35 35 35 35 33 31 31 32 33 34 34 33 31 28 27 28 29 29 28 28 27 25 24 25 25 24 23 23 21 23 26 29 30 30 29 28 27 26 26 25 23 21 20 21 23 22 20 18 17 17 17 17 16 15 14 14 13 12 11 11
36 37 37 37 38 39 40 40 40 40 40 40 39 39 40 39 39 39 38 37 38 38 39 39 38 38 37 38 37 35 34 34 33 33 34 35 35 34 32 30 30 30 30 29 30 29 27 26 27 27 24 23 23 21 22 26 29 30 30 30 28 28 28 28 27 25 23 21 21 21 21 20 19 18 18 18 18 17 16 15 15 14 12 12 11
37 36 37 38 39 40 42 42 41 41 41 40 40 40 40 40 40 40 39 39 39 39 40 40 40 39 39 39 39 37 36 36 36 36 35 36 36 35 35 34 32 31 30 31 30 30 30 30 30 28 27 25 24 23 23 26 29 30 31 31 30 30 30 30 29 27 25 23 22 21 20 19 19 18 18 19 19 18 17 16 16 15 14 14 13
38 37 38 39 40 41 42 42 42 42 41 41 41 41 41 40 40 40 40 40 40 40 40 40 40 40 40 40 39 38 37 38 38 38 37 36 36 36 37 37 35 33 32 32 31 31 31 31 30 29 29 29 27 26 25 25 28 30 31 31 31 32 33 32 30 28 26 25 23 22 21 20 19 18 18 19 20 19 19 18 17 16 16 16 15
39 40 40 40 41 41 42 42 42 42 41 41 41 41 41 41 40 40 40 40 40 40 40 40 40 39 39 39 39 39 39 40 40 39 39 38 37 37 37 38 37 35 33 32 32 31 31 30 29 29 29 28 29 28 25 24 26 31 33 33 32 32 33 33 31 28 27 26 25 24 23 23 22 21 20 20 21 20 20 19 18 18 18 17 16
40 41 41 40 40 41 42 42 42 41 41 41 42 42 42 42 41 41 41 41 40 40 40 40 40 40 39 38 39 40 40 41 41 40 40 39 38 38 38 38 37 36 35 33 32 31 30 28 29 28 25 26 28 28 26 28 30 32 33 32 31 31 31 31 32 30 28 27 27 27 26 25 26 25 24 23 22 22 21 21 20 20 19 18 16
40 41 40 40 40 41 41 41 41 41 41 42 43 44 45 44 43 42 41 40 40 39 39 39 39 39 39 39 39 40 41 41 41 41 41 41 40 40 40 39 38 37 36 34 34 33 29 27 28 27 24 25 29 30 30 33 34 32 30 30 31 31 27 25 27 30 30 29 29 30 29 28 28 27 26 26 24 23 23 22 22 21 19 17 16
40 40 40 40 41 41 41 41 41 41 42 43 44 45 46 46 44 42 40 40 39 39 38 38 38 39 39 39 39 39 40 41 42 42 42 43 43 43 42 42 41 40 38 37 36 35 31 29 30 28 25 28 32 32 32 33 32 32 31 31 31 29 24 21 21 24 30 32 32 32 32 31 29 29 28 28 26 25 24 23 23 21 19 17 16
40 40 40 41 42 41 40 40 41 42 43 44 45 46 47 47 46 43 41 40 39 39 39 38 38 38 38 38 38 38 39 40 42 43 43 44 45 45 45 44 44 43 42 41 40 37 34 32 31 30 30 32 33 33 34 35 34 34 33 32 32 30 28 26 24 25 29 32 32 32 33 32 30 30 30 29 28 26 25 23 22 21 19 18 16
40 40 41 41 41 41 41 40 41 42 43 44 45 46 46 47 47 45 43 41 39 39 39 38 38 38 38 37 37 38 39 40 41 42 43 44 45 46 46 46 45 45 45 46 46 42 39 36 34 35 37 36 36 37 39 38 35 34 32 32 33 32 31 31 33 35 34 31 30 31 32 33 32 31 31 30 28 27 25 23 22 20 20 19 18
39 40 40 41 41 42 42 41 41 42 43 44 45 46 46 46 46 46 45 42 40 39 39 38 38 38 39 38 37 38 38 38 39 40 41 43 43 44 45 46 47 48 48 49 49 47 44 41 39 41 43 41 41 44 43 38 35 36 36 35 36 35 36 38 40 41 37 34 32 29 28 31 32 31 32 31 29 28 26 24 22 21 20 20 19
40 40 40 40 41 42 42 42 42 41 42 44 44 45 47 46 46 46 46 44 41 39 39 39 39 39 39 39 38 39 38 37 37 38 40 41 41 42 43 45 47 49 50 50 50 49 49 48 47 48 49 46 45 46 44 38 38 40 39 39 39 38 38 39 38 36 35 35 34 29 25 29 32 32 32 32 30 29 27 24 22 21 21 21 21
39 39 40 40 40 41 41 41 41 42 42 43 43 45 46 46 45 44 45 44 42 41 40 39 39 39 39 39 39 39 38 38 38 38 39 39 40 40 41 43 45 47 50 51 50 51 52 52 52 53 53 51 48 48 45 41 40 40 38 38 35 32 31 31 30 32 34 34 36 35 28 27 30 32 33 32 31 30 28 26 24 22 22 22 21
37 38 39 39 39 40 39 40 41 41 42 41 41 43 43 43 43 44 44 44 43 42 41 40 40 40 39 40 39 39 39 39 39 39 39 39 40 40 41 42 42 45 48 47 46 49 52 54 55 55 56 55 52 50 47 45 43 40 36 34 31 30 29 25 23 27 31 33 37 39 33 27 29 32 32 31 31 31 29 27 26 24 23 23 22
39 40 39 38 38 38 38 39 40 39 39 38 38 39 39 40 41 43 44 43 42 42 42 41 41 40 39 40 40 39 40 40 39 40 39 39 40 41 40 39 40 44 45 41 39 44 48 50 53 54 56 57 55 53 50 49 47 43 40 38 35 33 31 26 23 24 26 30 37 38 32 27 28 30 28 25 25 29 29 27 26 26 24 23 23
40 40 38 37 37 38 38 38 38 37 36 35 34 34 35 36 39 41 43 42 41 40 40 40 40 40 39 39 39 41 42 42 41 41 40 40 41 42 41 39 39 44 42 36 37 42 42 44 48 50 54 57 56 55 54 52 49 47 46 45 40 36 33 31 29 22 16 22 34 37 32 27 26 29 27 18 12 18 27 28 26 27 27 25 25
Wind_Direction
175 178 184 185 181 178 171 163 158 155 153 151 149 146 143 138 140 146 150 157 164 176 188 193 191 261 222 214 206 197 201 200 186 176 172 174 172 172 175 174 173 173 173 174 172 172 172 173 171 168 167 165 164 160 157 156 154 156 155 157 159 161 164 165 168 170 175 182 184 190 200 208 214 219 226 237 254 277 295 300 303 311 322 326 326
183 184 191 191 183 182 178 171 165 162 161 158 152 150 149 141 142 146 159 177 185 190 191 183 165 27 238 212 210 201 199 200 189 180 175 176 175 172 175 176 174 175 175 176 174 176 179 178 175 176 176 175 176 176 174 173 173 171 170 173 173 176 179 181 183 186 194 202 203 208 221 230 236 241 244 252 265 279 286 290 297 303 310 314 315
193 189 194 193 183 180 176 171 168 165 166 164 153 152 157 153 149 149 163 173 177 192 192 183 163 56 44 207 209 203 200 200 188 182 179 177 178 173 173 177 177 176 177 179 178 179 184 183 181 184 184 182 182 184 188 188 189 189 189 190 190 194 199 202 203 203 210 220 223 226 236 242 246 252 253 258 265 272 279 285 294 299 302 306 312
198 195 195 190 181 176 172 168 165 163 165 164 156 157 165 164 163 161 169 167 173 195 198 195 170 75 52 183 206 203 199 197 183 178 181 179 181 175 174 179 178 180 182 183 183 183 187 187 187 190 189 189 188 189 195 197 196 199 203 204 204 208 214 219 219 219 224 233 239 238 244 248 254 261 261 263 266 270 278 288 295 301 304 308 311
198 197 191 185 179 176 173 170 163 158 160 163 161 162 167 171 173 165 174 184 184 192 198 203 173 96 65 87 204 204 197 192 180 175 180 182 182 175 175 181 181 182 187 188 188 189 191 191 193 196 196 196 197 196 201 203 202 205 208 211 213 216 223 228 229 229 232 240 246 246 249 254 259 264 267 270 273 275 281 290 296 301 306 308 309
190 188 184 181 180 179 176 172 166 160 161 167 165 161 165 173 175 166 175 197 188 178 192 198 170 120 77 71 188 202 196 189 178 175 181 185 182 174 173 180 184 186 190 192 193 194 194 197 199 200 202 202 202 202 206 208 208 212 213 216 220 223 228 233 235 236 239 245 250 252 255 258 261 264 270 272 276 281 287 293 297 299 300 302 304
183 182 180 181 183 185 180 173 171 171 171 171 166 159 161 165 172 169 169 194 187 169 183 188 187 145 68 55 125 193 194 187 177 175 183 186 176 168 171 176 181 185 193 196 197 197 197 200 204 207 208 208 208 209 212 213 214 218 221 224 226 228 232 236 240 241 243 248 251 255 256 259 263 267 273 276 278 283 288 295 297 297 297 297 298
180 183 183 185 187 189 186 180 178 177 177 177 173 165 163 164 165 165 171 198 198 168 178 186 205 143 51 39 125 181 191 186 178 177 181 182 172 163 167 172 175 177 186 197 200 202 202 202 206 211 214 213 214 216 219 220 220 223 227 231 231 232 234 239 244 247 247 249 254 260 262 265 268 270 275 279 284 287 290 294 296 298 300 301 299
180 184 185 186 190 190 187 189 186 180 183 187 186 181 178 177 168 166 182 205 211 187 177 181 184 104 55 47 127 173 187 183 177 178 176 174 169 165 163 165 171 172 177 188 198 203 205 207 207 210 216 218 219 221 224 227 227 229 233 234 235 236 237 243 251 255 254 254 260 266 269 270 271 273 277 282 290 296 295 294 296 302 307 308 304
186 186 187 186 190 193 189 193 193 186 191 192 190 189 187 183 174 179 194 207 207 179 157 163 151 90 75 96 139 169 180 179 177 176 173 168 163 160 156 159 166 169 173 178 188 198 203 207 207 206 211 220 225 225 226 230 232 234 238 242 244 244 243 247 255 261 263 262 267 273 276 277 277 278 282 286 290 294 296 296 299 304 307 307 304
198 193 191 187 189 197 196 197 198 194 195 194 191 190 187 182 177 186 196 193 194 181 159 161 151 107 100 123 147 171 176 176 180 177 170 165 160 157 152 156 164 167 174 177 180 188 196 203 207 205 207 218 225 226 228 232 235 234 236 242 246 248 250 252 255 264 269 270 273 279 281 280 280 281 283 287 287 286 288 291 293 296 298 300 301
205 200 195 191 189 196 200 200 201 201 199 199 196 190 186 183 177 183 191 186 188 194 189 189 190 180 134 123 145 171 179 179 182 179 174 168 161 160 157 158 165 167 172 176 175 176 184 196 206 208 208 216 219 219 230 235 235 233 231 236 242 247 253 257 261 267 271 274 276 279 282 276 268 270 277 280 278 273 274 278 280 284 290 297 301
207 203 196 195 194 195 201 201 202 208 207 205 198 191 194 190 182 184 194 196 194 199 199 196 202 198 194 143 143 165 180 188 190 185 180 175 170 168 166 167 168 166 169 172 170 168 171 179 190 201 205 213 217 217 227 233 234 236 229 229 237 245 250 254 259 264 265 264 268 274 278 275 262 256 266 270 271 269 271 275 274 275 279 291 304
206 204 197 195 196 195 200 202 203 208 210 209 201 196 200 199 195 194 197 204 198 193 193 191 201 198 177 154 135 156 174 191 197 196 189 183 182 180 176 176 173 168 168 168 167 166 169 178 180 183 189 199 212 218 226 228 230 236 232 225 227 237 245 248 252 256 257 252 251 256 260 267 264 252 256 251 266 297 311 312 318 321 311 318 331
206 206 199 196 198 198 200 205 206 206 207 206 203 200 201 199 201 202 197 200 198 191 191 192 199 189 154 120 235 156 165 193 194 200 201 195 193 189 186 186 180 176 175 171 173 172 169 179 179 176 177 185 200 211 220 221 224 232 232 225 218 220 227 234 238 231 239 244 238 237 236 254 115 108 103 105 92 74 68 57 54 49 40 29 19
209 209 203 199 201 202 203 207 209 211 211 208 204 200 198 195 195 199 195 192 193 193 195 201 207 190 156 102 80 118 242 229 194 196 200 200 203 198 193 193 187 185 184 178 181 182 179 182 178 173 174 177 190 205 213 213 221 225 216 214 213 211 209 213 216 205 211 225 192 141 111 98 105 102 94 95 91 83 78 71 66 57 45 34 24
212 212 210 205 204 206 208 209 211 214 216 214 209 203 199 196 194 195 198 196 194 195 199 205 213 206 188 163 81 109 233 228 196 197 189 194 205 205 200 197 193 192 191 187 190 191 191 194 189 183 184 184 190 206 214 216 225 220 209 207 202 198 197 197 196 188 179 174 151 135 132 123 120 109 102 101 95 88 81 72 64 52 40 29 21
214 215 216 211 207 208 210 211 214 216 218 218 215 210 204 202 202 201 203 205 200 200 205 205 210 215 211 213 215 212 217 176 156 202 191 184 198 204 203 199 196 197 196 194 197 199 202 205 201 197 199 201 205 211 213 220 225 212 213 212 190 186 194 189 180 174 168 166 159 149 141 132 123 114 109 107 97 90 78 69 62 52 44 36 29
216 216 218 217 211 209 211 213 217 219 221 221 219 216 211 207 208 207 206 208 207 210 211 206 210 215 215 223 228 217 196 187 169 160 110 154 187 197 202 201 199 200 201 200 201 203 206 206 199 198 203 204 208 211 198 206 210 197 197 195 181 179 186 181 174 172 168 163 157 148 135 123 117 111 107 99 89 81 71 63 55 47 42 36 31
217 218 219 219 215 211 211 214 219 222 222 222 221 217 214 210 209 210 210 210 213 216 212 210 214 211 207 217 223 208 194 196 192 179 140 111 172 190 198 201 203 204 206 206 205 206 207 201 195 195 201 202 201 199 186 186 194 195 192 182 176 176 177 179 181 176 170 165 160 148 133 121 115 106 98 90 82 74 61 52 43 34 28 22 16
216 220 221 221 218 215 214 215 219 221 221 222 222 219 217 213 208 209 211 210 213 219 215 215 214 207 206 214 213 201 187 179 185 183 156 141 162 192 187 192 205 210 210 210 209 211 209 202 198 198 203 204 203 201 198 197 196 198 199 191 184 183 183 186 188 185 180 177 175 169 154 141 129 116 109 93 74 59 35 21 14 7 0 355 350
214 220 224 223 220 218 217 218 220 222 222 222 222 221 218 213 208 208 209 209 211 217 220 220 219 214 218 222 215 202 182 165 170 168 151 150 168 193 184 181 195 207 209 213 212 211 209 206 206 207 208 208 208 211 213 211 201 197 201 201 198 199 199 198 199 201 199 197 197 197 194 188 181 177 176 228 349 344 338 338 337 336 335 332 330
213 218 223 224 222 220 220 221 222 225 224 222 221 221 218 213 210 209 210 212 212 216 222 223 225 228 232 232 222 212 200 190 184 171 159 153 160 185 195 194 199 205 207 214 217 215 210 209 213 217 216 213 214 219 221 220 214 204 200 202 204 208 210 212 215 217 216 215 216 217 220 223 227 234 248 272 291 301 304 308 309 310 311 310 311
213 218 222 223 221 220 220 222 223 226 225 222 221 221 219 216 215 213 212 215 216 218 221 221 224 227 228 231 226 221 218 212 198 185 191 186 171 182 203 203 208 219 213 213 220 221 216 214 218 222 223 222 222 224 225 225 226 218 208 209 215 219 218 222 226 227 228 227 227 228 232 238 244 249 257 268 277 286 290 294 297 296 296 297 298
213 217 221 222 220 219 219 220 221 224 225 224 223 222 221 217 216 215 214 216 219 222 221 218 219 222 225 230 225 221 223 220 209 200 207 206 183 181 198 203 212 225 220 216 220 222 220 220 222 224 227 229 228 229 228 227 227 224 220 219 220 220 221 224 229 233 235 235 236 236 239 245 251 256 262 266 272 280 286 292 295 295 295 294 294
215 218 221 221 221 219 219 220 221 224 226 226 226 225 222 218 216 217 217 220 224 225 223 219 217 218 224 228 220 217 222 220 213 210 214 218 206 189 182 187 211 217 214 216 217 215 217 221 222 224 229 230 231 234 234 231 229 227 226 225 223 222 225 227 231 235 238 241 243 244 247 252 256 261 264 268 273 278 283 289 294 296 293 290 292
220 221 222 221 221 220 221 223 223 225 226 227 228 226 223 219 219 220 221 223 226 225 223 220 218 216 218 221 218 217 220 218 214 215 220 224 225 217 197 164 184 222 218 215 216 217 219 221 223 225 228 231 233 237 239 238 235 231 230 231 231 231 234 237 238 239 241 244 247 248 251 255 259 263 266 270 274 279 283 288 293 295 292 290 293
221 222 222 222 222 221 221 223 225 226 228 228 228 227 224 220 220 222 224 224 225 224 223 222 222 220 217 216 218 219 218 216 215 216 220 225 230 235 225 202 183 197 250 236 228 228 225 223 225 229 231 233 236 239 242 242 240 236 234 235 237 238 240 243 244 245 247 249 251 252 254 257 261 265 268 271 274 278 283 287 291 294 291 291 295
221 222 222 223 223 222 223 224 225 226 228 228 228 226 225 223 221 223 225 225 224 224 226 226 225 224 222 217 218 221 217 215 217 216 219 226 229 233 236 227 211 191 192 232 239 231 225 224 228 233 234 234 238 241 242 243 243 239 237 238 240 242 243 245 246 247 250 253 255 255 256 259 263 265 268 269 272 276 279 282 287 290 288 289 293
220 222 222 223 223 223 223 224 225 226 227 228 228 226 223 223 224 226 227 226 225 224 226 229 225 223 225 222 220 221 219 216 218 219 222 227 231 233 237 238 232 218 201 200 237 238 229 227 231 235 237 237 238 242 243 244 244 241 240 240 241 243 245 245 246 248 251 255 257 257 257 260 264 266 267 267 267 269 272 276 281 285 285 287 291
220 221 221 221 221 222 223 225 226 226 226 228 228 225 222 223 224 226 226 225 225 225 226 227 226 223 225 227 223 221 220 218 220 224 228 231 236 238 238 238 237 233 223 209 223 245 235 232 236 238 241 242 241 243 244 245 244 242 241 240 241 245 246 244 246 247 250 254 256 256 258 260 263 266 267 266 264 263 264 269 275 279 283 287 290
220 221 221 220 220 221 222 224 225 226 226 227 227 225 223 224 224 224 224 224 225 226 226 226 225 224 226 229 227 223 220 219 222 227 230 232 236 241 242 239 235 235 231 219 217 246 243 239 243 244 244 245 245 245 246 245 242 239 239 239 241 245 246 245 246 246 247 250 251 255 258 259 262 265 266 265 263 261 261 264 268 274 279 284 286
217 218 219 220 221 221 221 222 224 225 226 226 226 225 224 225 225 224 223 223 224 226 226 225 224 224 226 229 230 227 223 222 224 227 230 233 236 240 242 239 233 231 229 223 222 242 249 246 247 247 246 246 246 246 247 245 239 235 236 237 239 243 246 248 248 247 247 248 248 252 255 258 261 262 262 261 259 258 258 259 262 266 273 279 281
214 216 218 220 221 221 221 222 223 225 226 226 225 225 224 224 224 224 223 223 224 224 225 226 225 225 226 228 230 230 227 226 226 228 230 233 235 238 238 235 232 230 228 226 225 233 247 249 246 244 245 245 245 245 246 244 238 234 232 234 236 240 244 248 250 250 250 250 250 251 252 257 260 258 254 253 253 253 252 252 255 260 268 275 277
214 216 218 219 220 221 221 222 224 225 225 225 224 223 224 224 224 224 223 223 223 223 223 225 226 225 225 227 229 229 228 229 229 229 231 233 235 237 237 233 231 231 230 229 230 232 243 250 249 244 241 243 245 245 245 243 239 234 233 234 238 240 242 245 248 250 251 252 252 251 251 253 253 250 249 251 252 251 250 250 253 260 268 274 276
214 216 217 218 219 220 222 223 224 225 225 224 224 223 223 224 224 225 224 224 224 223 224 226 226 226 225 227 229 229 228 229 231 231 231 233 235 237 238 236 234 235 234 232 234 237 241 249 252 249 244 243 245 245 244 240 235 233 234 237 241 243 244 244 246 247 248 250 253 252 251 248 244 243 247 249 250 250 251 252 255 261 268 271 274
215 216 216 217 218 220 222 223 224 225 225 224 223 223 223 224 224 225 226 226 225 225 226 227 227 226 226 228 230 229 227 228 231 232 232 232 234 236 238 239 238 238 238 237 238 239 241 245 251 253 250 246 245 244 241 237 233 233 235 239 242 244 244 245 246 246 246 246 249 249 247 243 241 245 248 248 248 250 251 253 256 261 265 267 269
216 216 216 216 218 219 221 223 224 225 225 224 224 224 223 223 224 225 226 227 227 227 227 228 228 228 228 230 231 229 227 228 230 232 233 233 234 235 237 239 240 240 239 239 240 240 241 243 248 251 250 248 245 242 238 236 235 236 236 238 241 242 242 243 245 245 244 244 245 244 243 242 245 248 250 250 250 251 251 252 253 256 259 262 264
216 216 216 217 218 220 222 223 224 224 224 224 224 224 224 223 224 224 225 226 227 229 229 230 230 230 230 231 232 230 229 230 231 232 233 234 234 235 236 238 240 240 240 240 240 240 240 243 245 247 247 247 246 244 241 239 238 239 238 236 236 236 236 239 241 242 243 244 244 244 244 246 250 251 251 253 253 252 251 250 250 252 255 259 260
217 217 218 218 219 220 222 223 224 224 224 223 224 224 224 224 224 225 226 226 227 228 230 232 232 232 232 233 233 233 232 233 234 234 234 235 235 235 236 237 238 240 240 240 239 238 239 241 244 246 246 246 245 244 243 237 233 235 234 232 233 234 234 235 238 240 242 243 244 245 245 246 248 249 249 249 248 248 248 247 247 249 252 255 255
218 219 219 220 220 221 223 223 224 224 224 224 224 224 224 224 224 226 227 227 227 228 230 232 233 234 234 234 235 236 236 237 237 237 237 237 237 236 237 236 235 236 238 239 238 237 236 238 242 244 244 244 242 239 236 232 230 233 233 231 233 237 237 237 237 238 240 243 244 244 244 244 245 248 250 247 244 243 243 242 243 244 248 251 248
220 220 220 221 221 222 223 223 224 224 224 225 225 226 226 225 225 226 227 228 228 228 229 231 233 235 235 236 237 238 239 240 240 240 240 240 240 241 241 239 235 233 233 234 236 236 235 236 239 239 238 241 241 237 235 236 235 236 235 231 232 236 236 237 239 239 239 240 240 241 242 242 243 246 249 248 247 245 243 240 239 241 247 247 241
220 220 220 221 222 223 223 224 224 224 224 226 226 227 228 228 226 225 227 229 229 229 230 230 232 235 236 237 238 239 239 240 242 242 243 242 242 243 244 243 241 237 234 232 234 234 233 234 238 237 234 239 242 239 237 239 238 236 235 232 232 231 227 229 237 239 238 236 235 237 241 241 240 241 245 247 247 247 245 242 238 239 243 241 236
221 220 220 221 222 223 224 224 225 225 226 227 227 228 229 229 228 227 227 229 230 231 231 232 233 234 236 237 238 239 239 240 241 242 243 244 244 245 245 245 244 243 241 239 237 235 232 233 236 235 233 238 242 240 237 237 236 235 234 232 230 227 223 224 228 234 239 237 230 232 239 239 236 237 240 243 243 244 245 243 239 238 238 236 235
221 221 221 221 222 223 223 225 226 226 228 229 229 229 230 231 230 229 228 230 231 233 233 234 235 235 236 237 238 239 240 240 241 241 242 244 245 246 246 246 245 245 245 245 245 242 239 236 236 237 237 237 240 241 240 237 233 231 231 230 229 226 223 225 229 235 240 237 226 225 234 237 234 233 235 237 239 239 240 240 238 236 234 233 235
221 222 223 223 223 223 224 225 226 228 229 230 230 231 231 232 231 230 230 231 232 234 235 235 236 237 237 237 238 239 240 240 240 241 241 243 244 245 245 245 244 244 245 245 246 246 244 241 240 243 245 242 242 246 246 240 234 231 230 230 230 228 227 231 236 238 239 236 227 223 229 235 233 229 231 235 236 235 236 237 234 230 228 230 233
221 223 224 224 224 225 225 226 227 229 231 231 232 232 233 233 233 231 231 231 233 235 237 237 238 239 239 239 240 241 242 242 241 241 241 242 243 244 244 244 245 245 245 244 244 244 244 243 243 246 249 247 247 249 249 244 240 239 237 237 237 235 234 237 240 239 237 235 229 222 225 233 230 226 229 234 234 233 234 233 229 225 225 228 230
222 224 226 226 226 226 226 226 227 230 232 233 233 233 234 234 233 232 231 231 233 235 237 238 239 240 241 241 241 242 243 244 244 243 244 243 242 242 243 244 246 246 247 246 246 246 246 246 246 248 250 251 250 251 250 247 245 244 241 240 240 236 235 238 239 236 234 233 228 222 224 231 228 224 228 232 231 231 231 228 223 220 222 223 222
221 224 226 227 228 229 228 228 228 230 232 234 234 234 235 234 232 231 230 230 232 235 238 239 240 241 242 242 242 243 244 245 245 245 245 243 242 241 242 244 246 247 248 248 247 248 249 249 249 250 252 253 251 251 251 249 248 245 238 234 233 229 229 233 236 235 232 229 226 221 222 227 225 222 225 228 229 229 228 224 219 218 220 219 217
220 223 225 227 229 231 231 230 230 231 232 234 234 235 235 235 233 231 230 230 232 235 238 240 241 242 243 243 244 244 245 246 247 247 246 243 242 242 242 244 246 248 249 248 247 249 251 251 252 251 252 253 252 251 251 250 249 245 236 233 232 228 227 231 235 239 238 234 228 220 219 225 223 218 218 221 225 228 225 220 217 216 218 216 213
219 222 223 226 229 231 232 233 233 234 234 234 234 234 234 234 233 232 230 230 232 235 237 240 242 243 244 245 245 245 247 248 248 248 247 245 243 243 243 243 246 249 251 249 248 250 250 250 251 250 251 252 251 250 250 249 247 243 239 238 236 229 227 231 233 235 238 238 230 219 215 223 222 214 211 207 213 226 223 218 216 216 216 213 211